| time (UTC) | temp F | wind direction | speed MPH | gust MPH | rain 1hr in | rain 24hr in | rain mn in | humidity % | barometer mb |
| 20260507180046 | 62 | 0 | 2.0 | 10.0 | 0.00 | 0.23 | 0.14 | 43 | 1008.5 |
| 20260507174551 | 61 | 0 | 0.0 | 9.0 | 0.00 | 0.24 | 0.14 | 43 | 1008.5 |
| 20260507173051 | 61 | 272 | 4.0 | 12.0 | 0.00 | 0.24 | 0.14 | 42 | 1008.9 |
| 20260507171552 | 61 | 0 | 1.0 | 4.0 | 0.00 | 0.24 | 0.14 | 43 | 1009.0 |
| 20260507170050 | 61 | 24 | 0.0 | 10.0 | 0.00 | 0.24 | 0.14 | 41 | 1009.3 |
| 20260507164605 | 60 | 0 | 0.0 | 4.0 | 0.00 | 0.25 | 0.14 | 43 | 1009.5 |
| 20260507163047 | 60 | 338 | 0.0 | 7.0 | 0.00 | 0.25 | 0.14 | 44 | 1009.6 |
| 20260507161554 | 60 | 0 | 0.0 | 5.0 | 0.00 | 0.25 | 0.14 | 45 | 1009.8 |
| 20260507160052 | 60 | 0 | 0.0 | 5.0 | 0.00 | 0.25 | 0.14 | 47 | 1009.9 |
| 20260507154554 | 59 | 22 | 0.0 | 6.0 | 0.00 | 0.25 | 0.14 | 47 | 1010.1 |
| 20260507153046 | 59 | 0 | 1.0 | 4.0 | 0.00 | 0.25 | 0.14 | 46 | 1010.3 |
| 20260507151544 | 58 | 0 | 0.0 | 4.0 | 0.00 | 0.25 | 0.14 | 52 | 1010.4 |
| 20260507150049 | 58 | 0 | 2.0 | 6.0 | 0.00 | 0.25 | 0.14 | 49 | 1010.5 |
| 20260507144547 | 58 | 336 | 0.0 | 3.0 | 0.00 | 0.25 | 0.14 | 56 | 1010.5 |
| 20260507143104 | 58 | 0 | 0.0 | 4.0 | 0.00 | 0.25 | 0.14 | 58 | 1010.5 |
| 20260507141605 | 57 | 0 | 0.0 | 4.0 | 0.00 | 0.25 | 0.14 | 62 | 1010.4 |
| 20260507140047 | 56 | 0 | 0.0 | 4.0 | 0.00 | 0.25 | 0.14 | 62 | 1010.4 |
| 20260507134544 | 56 | 0 | 0.0 | 3.0 | 0.00 | 0.25 | 0.14 | 67 | 1010.4 |
| 20260507133042 | 55 | 0 | 0.0 | 5.0 | 0.00 | 0.25 | 0.14 | 71 | 1010.4 |
| 20260507131549 | 54 | 233 | 0.0 | 9.0 | 0.00 | 0.25 | 0.14 | 76 | 1010.4 |
| 20260507130047 | 53 | 0 | 0.0 | 2.0 | 0.00 | 0.25 | 0.14 | 77 | 1010.4 |
| 20260507124547 | 53 | 0 | 0.0 | 3.0 | 0.00 | 0.25 | 0.14 | 79 | 1010.4 |
| 20260507123102 | 52 | 0 | 0.0 | 10.0 | 0.00 | 0.25 | 0.14 | 81 | 1010.4 |
| 20260507121549 | 50 | 0 | 0.0 | 1.0 | 0.00 | 0.25 | 0.14 | 88 | 1010.3 |
| 20260507120048 | 49 | 0 | 0.0 | 0.0 | 0.00 | 0.25 | 0.14 | 89 | 1010.4 |
| 20260507114552 | 49 | 0 | 0.0 | 0.0 | 0.00 | 0.25 | 0.14 | 89 | 1010.3 |
| 20260507113047 | 48 | 0 | 0.0 | 1.0 | 0.00 | 0.25 | 0.14 | 90 | 1010.0 |
| 20260507111546 | 48 | 0 | 0.0 | 0.0 | 0.00 | 0.25 | 0.14 | 92 | 1009.8 |
| 20260507110049 | 48 | 0 | 0.0 | 0.0 | 0.00 | 0.25 | 0.14 | 92 | 1009.8 |
| 20260507104551 | 48 | 0 | 0.0 | 0.0 | 0.00 | 0.25 | 0.14 | 93 | 1009.6 |
| 20260507103046 | 48 | 0 | 0.0 | 0.0 | 0.00 | 0.25 | 0.14 | 94 | 1009.5 |
| 20260507101547 | 47 | 0 | 0.0 | 0.0 | 0.00 | 0.25 | 0.14 | 94 | 1009.1 |
| 20260507100054 | 47 | 0 | 0.0 | 1.0 | 0.00 | 0.25 | 0.14 | 95 | 1009.1 |
| 20260507094550 | 48 | 0 | 0.0 | 0.0 | 0.00 | 0.25 | 0.14 | 95 | 1009.3 |
| 20260507093048 | 48 | 0 | 0.0 | 0.0 | 0.00 | 0.25 | 0.14 | 95 | 1008.9 |
| 20260507091551 | 48 | 0 | 0.0 | 0.0 | 0.00 | 0.25 | 0.14 | 96 | 1008.8 |
| 20260507090058 | 48 | 0 | 0.0 | 0.0 | 0.01 | 0.25 | 0.14 | 96 | 1008.9 |
| 20260507084554 | 48 | 0 | 0.0 | 0.0 | 0.01 | 0.25 | 0.14 | 96 | 1008.9 |
| 20260507083044 | 49 | 0 | 0.0 | 0.0 | 0.03 | 0.25 | 0.14 | 96 | 1009.0 |
| 20260507081554 | 49 | 0 | 0.0 | 0.0 | 0.03 | 0.25 | 0.14 | 96 | 1009.1 |
| 20260507080111 | 49 | 0 | 0.0 | 0.0 | 0.04 | 0.24 | 0.13 | 95 | 1008.9 |
| 20260507074547 | 49 | 0 | 0.0 | 0.0 | 0.06 | 0.24 | 0.13 | 95 | 1009.2 |
| 20260507073050 | 50 | 0 | 0.0 | 0.0 | 0.06 | 0.22 | 0.11 | 95 | 1009.2 |
| 20260507071549 | 50 | 0 | 0.0 | 0.0 | 0.08 | 0.22 | 0.11 | 95 | 1009.1 |
| 20260507070054 | 50 | 0 | 0.0 | 0.0 | 0.08 | 0.20 | 0.09 | 94 | 1009.0 |
| 20260507064619 | 51 | 0 | 0.0 | 0.0 | 0.06 | 0.18 | 0.07 | 93 | 1009.1 |
| 20260507063052 | 51 | 0 | 0.0 | 0.0 | 0.05 | 0.16 | 0.05 | 92 | 1008.8 |
| 20260507061544 | 52 | 0 | 0.0 | 0.0 | 0.03 | 0.14 | 0.03 | 91 | 1008.9 |
| 20260507060107 | 52 | 0 | 0.0 | 0.0 | 0.01 | 0.12 | 0.01 | 89 | 1009.0 |
| 20260507054552 | 53 | 0 | 0.0 | 0.0 | 0.01 | 0.12 | 0.01 | 86 | 1008.5 |
| 20260507053041 | 54 | 0 | 0.0 | 0.0 | 0.00 | 0.11 | 0.00 | 84 | 1008.3 |
| 20260507051601 | 54 | 0 | 0.0 | 0.0 | 0.00 | 0.11 | 0.00 | 83 | 1008.5 |
| 20260507050049 | 55 | 0 | 0.0 | 0.0 | 0.00 | 0.11 | 0.00 | 83 | 1008.8 |
| 20260507044550 | 55 | 0 | 0.0 | 0.0 | 0.00 | 0.11 | 0.00 | 82 | 1008.5 |
| 20260507043047 | 55 | 0 | 0.0 | 0.0 | 0.00 | 0.11 | 0.00 | 83 | 1008.6 |
| 20260507041547 | 55 | 0 | 0.0 | 0.0 | 0.00 | 0.11 | 0.00 | 85 | 1008.9 |
| 20260507040051 | 56 | 0 | 0.0 | 0.0 | 0.00 | 0.11 | 0.00 | 84 | 1008.7 |
| 20260507034551 | 56 | 271 | 0.0 | 3.0 | 0.00 | 0.11 | 0.11 | 84 | 1008.5 |
| 20260507033050 | 56 | 0 | 0.0 | 2.0 | 0.00 | 0.11 | 0.11 | 85 | 1008.3 |
| 20260507031545 | 56 | 0 | 0.0 | 1.0 | 0.00 | 0.11 | 0.11 | 86 | 1008.4 |
| 20260507030052 | 57 | 0 | 0.0 | 1.0 | 0.00 | 0.11 | 0.11 | 87 | 1008.3 |
| 20260507024550 | 57 | 0 | 0.0 | 0.0 | 0.00 | 0.11 | 0.11 | 88 | 1008.7 |
| 20260507023050 | 57 | 0 | 0.0 | 0.0 | 0.00 | 0.11 | 0.11 | 89 | 1008.7 |
| 20260507021549 | 58 | 0 | 0.0 | 0.0 | 0.00 | 0.11 | 0.11 | 90 | 1008.5 |
| 20260507020101 | 58 | 0 | 0.0 | 0.0 | 0.00 | 0.11 | 0.11 | 91 | 1008.6 |
| 20260507014551 | 58 | 0 | 0.0 | 0.0 | 0.00 | 0.11 | 0.11 | 90 | 1008.5 |
| 20260507013046 | 60 | 0 | 0.0 | 13.0 | 0.00 | 0.11 | 0.11 | 90 | 1008.2 |
| 20260507011551 | 62 | 0 | 0.0 | 5.0 | 0.00 | 0.11 | 0.11 | 94 | 1008.0 |
| 20260507010100 | 62 | 0 | 0.0 | 1.0 | 0.00 | 0.11 | 0.11 | 94 | 1007.3 |
| 20260507004549 | 62 | 0 | 0.0 | 3.0 | 0.00 | 0.11 | 0.11 | 94 | 1007.1 |
| 20260507003055 | 62 | 0 | 0.0 | 1.0 | 0.00 | 0.11 | 0.11 | 94 | 1007.0 |
| 20260507001551 | 62 | 0 | 0.0 | 0.0 | 0.00 | 0.11 | 0.11 | 94 | 1007.2 |
| 20260507000047 | 63 | 0 | 0.0 | 1.0 | 0.00 | 0.11 | 0.11 | 93 | 1007.1 |
| 20260506234550 | 63 | 0 | 0.0 | 6.0 | 0.00 | 0.11 | 0.11 | 93 | 1006.7 |
| 20260506233050 | 63 | 175 | 0.0 | 8.0 | 0.00 | 0.11 | 0.11 | 93 | 1006.6 |
| 20260506231604 | 63 | 0 | 0.0 | 7.0 | 0.00 | 0.11 | 0.11 | 93 | 1006.9 |
| 20260506224547 | 63 | 0 | 0.0 | 7.0 | 0.00 | 0.11 | 0.11 | 94 | 1006.7 |
| 20260506223044 | 63 | 165 | 1.0 | 8.0 | 0.00 | 0.11 | 0.11 | 94 | 1006.5 |
| 20260506221558 | 63 | 0 | 1.0 | 9.0 | 0.00 | 0.11 | 0.11 | 94 | 1006.3 |
| 20260506220055 | 62 | 255 | 1.0 | 7.0 | 0.00 | 0.11 | 0.11 | 95 | 1006.2 |
| 20260506214551 | 62 | 0 | 0.0 | 9.0 | 0.00 | 0.11 | 0.11 | 96 | 1006.2 |
| 20260506213103 | 62 | 0 | 0.0 | 7.0 | 0.00 | 0.11 | 0.11 | 96 | 1006.1 |
| 20260506211544 | 62 | 0 | 0.0 | 9.0 | 0.00 | 0.11 | 0.11 | 97 | 1006.1 |
| 20260506210054 | 62 | 0 | 0.0 | 10.0 | 0.00 | 0.11 | 0.11 | 97 | 1005.9 |
| 20260506204543 | 62 | 0 | 1.0 | 9.0 | 0.01 | 0.11 | 0.11 | 97 | 1005.7 |
| 20260506203043 | 62 | 231 | 0.0 | 7.0 | 0.04 | 0.11 | 0.11 | 97 | 1005.9 |
| 20260506201545 | 62 | 0 | 0.0 | 9.0 | 0.07 | 0.11 | 0.11 | 97 | 1006.0 |
| 20260506200041 | 61 | 0 | 2.0 | 10.0 | 0.08 | 0.11 | 0.11 | 96 | 1006.3 |
| 20260506194546 | 61 | 174 | 1.0 | 10.0 | 0.08 | 0.10 | 0.10 | 96 | 1006.7 |
| 20260506193044 | 62 | 0 | 1.0 | 7.0 | 0.05 | 0.07 | 0.07 | 95 | 1006.9 |
| 20260506191543 | 62 | 0 | 1.0 | 8.0 | 0.02 | 0.04 | 0.04 | 93 | 1007.0 |
| 20260506190048 | 63 | 0 | 1.0 | 8.0 | 0.01 | 0.03 | 0.03 | 89 | 1006.9 |
| 20260506184558 | 64 | 0 | 0.0 | 11.0 | 0.00 | 0.02 | 0.02 | 88 | 1006.9 |
| 20260506183043 | 64 | 0 | 1.0 | 12.0 | 0.00 | 0.02 | 0.02 | 87 | 1007.1 |
| 20260506181551 | 64 | 153 | 1.0 | 10.0 | 0.00 | 0.02 | 0.02 | 89 | 1006.9 |